NZAANZQN

Guest
Details From NZAA - Auckland International
To NZQN - Queenstown
Flight Number -
Tags Generated
Created
Modified
Stats Distance 553 nm / 1,023 km
Max Altitude 0 ft / 0 m
Waypoints 3
Social Downloads 7
Likes 0
Share VATSIM

Download

Looking for another format? Having issues loading an existing format? Contact us
Advertisement - Login to hide

Notes

Generated

Route

NZAA SH NZQN

ID Type Via Altitude Latitude Longitude Leg Dist Tot Dist Heading (true) Name
O NZAA APT - 0 ft / 0 m -37.01438˚ 174.77090˚ - 0 nm - -
SH VOR - 0 ft / 0 m -44.98411˚ 168.78264˚ 549 nm 549 nm 208° / 212° SLOPE HILL VOR-DME
O NZQN APT - 0 ft / 0 m -45.02010˚ 168.74263˚ 2 nm 552 nm 218° / 218° -

Altitude Profile

Advertisement - Login to hide

Weather


0- 5 10 15 20 25 30 35+ Temperature / ° C

Clouds and Precipitation
Forecast for 2018-05-26 00:00 UTC. Updated an hour ago

Ground ~20,000 ft ~40,000 ft Winds

NZAA

Details ICAO NZAA (AKL)
Name Auckland International
Region New Zealand and Antarctica
Timezone Pacific/Auckland (UTC+12.0)
Stats Elevation 23 ft / 7 m (AMSL)
Location -37.010794° 174.787331°
Runways 2
Magnetic Variation 19.857° E

METAR

NZAA 260030Z AUTO 19017KT 9999 FEW033/// 14/08 Q1012 NOSIG

Decode

TAF

TAF NZAA 252302Z 2600/2700 20015G25KT 9999 SCT030 FM260800 26015G25KT 9999 -SHRA BKN030 TEMPO 2609/2700 5000 SHRA BECMG 2618/2620 26020G35KT

Decode

Departure Runways

ID Width Length Bearing (true) Bearing (mag) Surface Threshold Offset Overrun Length
05L 157 ft / 48 m 10,844 ft / 3,305 m 70.91° 51.05° Concrete 1,240 ft / 378 m 460 ft / 140 m
05R 152 ft / 46 m 12,085 ft / 3,684 m 70.96° 51.10° Concrete 1,270 ft / 387 m 0 ft / 0 m
23L 152 ft / 46 m 12,085 ft / 3,684 m 250.94° 231.08° Concrete 0 ft / 0 m 0 ft / 0 m
23R 157 ft / 48 m 10,844 ft / 3,305 m 250.89° 231.03° Concrete 1,060 ft / 323 m 0 ft / 0 m

NZQN

Details ICAO NZQN (ZQN)
Name Queenstown
Region New Zealand and Antarctica
Timezone Pacific/Auckland (UTC+12.0)
Stats Elevation 1,171 ft / 357 m (AMSL)
Location -45.020546° 168.745402°
Runways 3
Magnetic Variation 24.450° E

METAR

Not found

TAF

TAF NZQN 251730Z 2518/2612 04005KT 9999 FEW050 TEMPO 2518/2521 BKN014 BECMG 2522/2600 27012KT BECMG 2602/2604 27015G25KT TEMPO 2602/2606 6000 SHRA BKN014 BECMG 2605/2608 21012KT

Decode

Destination Runways

ID Width Length Bearing (true) Bearing (mag) Surface Threshold Offset Overrun Length
05L 121 ft / 37 m 2,516 ft / 767 m 75.96° 51.51° Grass 0 ft / 0 m 0 ft / 0 m
05R 116 ft / 35 m 6,056 ft / 1,846 m 75.96° 51.51° Asphalt 367 ft / 112 m 0 ft / 0 m
14 167 ft / 51 m 3,157 ft / 962 m 161.16° 136.71° Grass 33 ft / 10 m 0 ft / 0 m
23L 116 ft / 35 m 6,056 ft / 1,846 m 255.94° 231.49° Asphalt 187 ft / 57 m 0 ft / 0 m
23R 121 ft / 37 m 2,516 ft / 767 m 255.96° 231.51° Grass 0 ft / 0 m 0 ft / 0 m
32 167 ft / 51 m 3,157 ft / 962 m 341.16° 316.71° Grass 66 ft / 20 m 0 ft / 0 m

Popular Alternatives